ROMMA est une association bénévole à but non lucratif. Votre soutien est indispensable : ADHERER à ROMMA ou FAIRE un DON

Voiron - (38, Isère)

Voironnais (300 m)   Longitude: 05° 35' E   Latitude: 45° 23' N Station partenaire n°109
 

Détail journalier du     <<     >>

Température Precipitation Humidité Pression Vent Dir Rafale Dir. rafale Ensol.
Heure (°C) (mm) (%) (hPa) (km/h) (km/h) (min)
01:00 21.405710183SE8S0
02:00 20.705810183S13SSE0
03:00 20.005910184SSE10SE0
04:00 19.206010182SE6S0
05:00 17.506810181SO5SO0
06:00 16.607010181SO5SO0
07:00 16.707110182OSO5OSO0
08:00 19.806010182OSO5OSO60
09:00 21.105110174ENE13ENE60
10:00 21.305110186SSE15SSE60
11:00 23.105110186SSE13S60
12:00 23.905310186SSE16SSE60
13:00 26.604210173SSO11SE60
14:00 28.504410175ONO16NNO60
15:00 28.703610167O21ONO60
16:00 29.203810166ONO16NNO60
17:00 28.603810156OSO16OSO30
18:00 28.604010154ONO15NO0
19:00 28.904310142ENE6SO30
20:00 28.204710142E6S30
21:00 26.905610142E11ESE30
22:00 24.906210142N10ESE0
23:00 24.106410152ENE5ENE0
minuit 22.6069101503E0

Graphique du 03-06-2019

 

Serveur OMMA